Location: ?????????
(38.4921°N, 22.9787°E)
Time: 02:59:09
(UTC+00:00)

SMAP - Pass Details

Date: 08 December 2025
Orbit: 681 x 683 km, 98.1° (Epoch: 15 January)

Event Time Altitude Azimuth Distance (km) Brightness Sun altitude
Rises 04:42:35 0° 13° (NNE) 3,052 6.3 -9.8°
Reaches altitude 10° 04:44:50 10° 14° (NNE) 2,132 5.5 -9.3°
Maximum altitude 04:49:31 83° 103° (ESE) 692 3.2 -8.5°
Drops below altitude 10° 04:54:09 10° 191° (S) 2,115 5.8 -7.7°
Sets 04:56:22 0° 192° (SSW) 3,026 6.5 -7.3°
